TimeMDT,TemperatureF,Dew PointF,Humidity,Sea Level PressureIn,VisibilityMPH,Wind Direction,Wind SpeedMPH,Gust SpeedMPH,PrecipitationIn,Events,Conditions,WindDirDegrees,DateUTC
12:53 AM,51.1,39.0,63,30.16,10.0,ESE,6.9,-,N/A,,Clear,110,2013-05-11 06:53:00
1:53 AM,52.0,39.0,61,30.16,10.0,ESE,12.7,-,N/A,,Clear,110,2013-05-11 07:53:00
2:53 AM,50.0,39.0,66,30.19,10.0,ESE,13.8,-,N/A,,Clear,120,2013-05-11 08:53:00
3:53 AM,48.0,37.9,68,30.20,10.0,ESE,11.5,-,N/A,,Clear,120,2013-05-11 09:53:00
4:53 AM,48.9,37.0,64,30.19,10.0,ESE,12.7,-,N/A,,Clear,110,2013-05-11 10:53:00
5:53 AM,45.0,37.0,74,30.21,10.0,East,8.1,-,N/A,,Clear,100,2013-05-11 11:53:00
6:53 AM,48.0,37.0,66,30.23,10.0,ESE,11.5,-,N/A,,Clear,120,2013-05-11 12:53:00
7:53 AM,53.1,37.0,55,30.23,10.0,ESE,12.7,-,N/A,,Clear,120,2013-05-11 13:53:00
8:53 AM,59.0,34.0,39,30.24,10.0,SSE,10.4,-,N/A,,Clear,150,2013-05-11 14:53:00
9:53 AM,61.0,34.0,36,30.24,10.0,SE,9.2,-,N/A,,Clear,140,2013-05-11 15:53:00
10:53 AM,63.0,33.1,33,30.22,10.0,SSE,4.6,-,N/A,,Clear,150,2013-05-11 16:53:00
11:53 AM,68.0,32.0,26,30.20,10.0,SE,4.6,-,N/A,,Clear,130,2013-05-11 17:53:00
12:53 PM,70.0,33.1,26,30.19,10.0,Variable,4.6,-,N/A,,Clear,0,2013-05-11 18:53:00
1:53 PM,73.0,26.1,17,30.16,10.0,Variable,6.9,-,N/A,,Clear,0,2013-05-11 19:53:00
2:53 PM,75.0,27.0,17,30.14,10.0,Variable,6.9,-,N/A,,Partly Cloudy,0,2013-05-11 20:53:00
3:53 PM,75.9,26.1,16,30.12,10.0,WSW,10.4,18.4,N/A,,Clear,240,2013-05-11 21:53:00
4:53 PM,75.0,27.0,17,30.09,10.0,WNW,6.9,18.4,N/A,,Clear,290,2013-05-11 22:53:00
5:53 PM,75.0,26.1,16,30.10,10.0,West,8.1,-,N/A,,Clear,280,2013-05-11 23:53:00
6:53 PM,73.0,26.1,17,30.08,10.0,WNW,5.8,-,N/A,,Clear,290,2013-05-12 00:53:00
7:53 PM,70.0,30.9,24,30.07,10.0,NW,5.8,-,N/A,,Clear,310,2013-05-12 01:53:00
8:53 PM,66.0,30.0,26,30.08,10.0,NNW,6.9,-,N/A,,Clear,340,2013-05-12 02:53:00
9:53 PM,59.0,34.0,39,30.12,10.0,NE,3.5,-,N/A,,Clear,50,2013-05-12 03:53:00
10:53 PM,60.1,33.1,36,30.11,10.0,NE,3.5,-,N/A,,Clear,40,2013-05-12 04:53:00
11:53 PM,57.9,34.0,41,30.11,10.0,ENE,4.6,-,N/A,,Clear,70,2013-05-12 05:53:00